This is the latest recevied weather packets stored in our database for station/object EA2AFZ-W. If no packets are shown the sender has not sent any weather packets the latest 10 day(s).
| Time | Temp. | Humidity | Pressure | Rain* | Wind** | Luminosity | Snow |
|---|---|---|---|---|---|---|---|
| 1777162517 | 14.44° C | 67% | 1021 hPa | 0 mm | - | - | - |
| 1777158912 | 14.44° C | 69% | 1021 hPa | 0 mm | - | - | - |
| 1777157109 | 14.44° C | 69% | 1021 hPa | 0 mm | - | - | - |
| 1777155366 | 14.44° C | 69% | 1021 hPa | 0 mm | - | - | - |
| 1777153565 | 14.44° C | 69% | 1022 hPa | 0 mm | - | - | - |
| 1777151761 | 14.44° C | 68% | 1021 hPa | 0 mm | - | - | - |
| 1777149959 | 14.44° C | 66% | 1021 hPa | 0 mm | - | - | - |
| 1777148156 | 14.44° C | 66% | 1021 hPa | 0 mm | - | - | - |
| 1777146353 | 15° C | 65% | 1021 hPa | 0 mm | - | - | - |
| 1777144550 | 15.56° C | 66% | 1020 hPa | 0 mm | - | - | - |
| 1777142748 | 16.11° C | 65% | 1020 hPa | 0 mm | - | - | - |
| 1777140946 | 16.11° C | 65% | 1020 hPa | 0 mm | - | - | - |
| 1777139143 | 16.11° C | 64% | 1020 hPa | 0 mm | - | - | - |
| 1777137340 | 16.67° C | 63% | 1019 hPa | 0 mm | - | - | - |
| 1777135538 | 16.67° C | 62% | 1019 hPa | 0 mm | - | - | - |
| 1777133734 | 16.11° C | 62% | 1019 hPa | 0 mm | - | - | - |
| 1777131932 | 16.67° C | 61% | 1019 hPa | 0 mm | - | - | - |
| 1777130130 | 17.22° C | 60% | 1019 hPa | 0 mm | - | - | - |
| 1777128327 | 17.78° C | 61% | 1019 hPa | 0 mm | - | - | - |
| 1777126525 | 18.33° C | 64% | 1019 hPa | 0 mm | - | - | - |
| 1777124721 | 18.33° C | 58% | 1019 hPa | 0 mm | - | - | - |
| 1777122919 | 18.89° C | 57% | 1019 hPa | 0 mm | - | - | - |
| 1777121116 | 18.89° C | 56% | 1019 hPa | 0 mm | - | - | - |
| 1777119314 | 18.89° C | 56% | 1019 hPa | 0 mm | - | - | - |
| 1777117512 | 18.89° C | 55% | 1019 hPa | 0 mm | - | - | - |
* Rain latest hour (hover to see other rain measurements)
** Current wind speed in m/s (hover to see current wind gust speed)